Regional Weather Roundup
Issued by NWS Midland/Odessa, TX

Skip options and go directly to product.
Home | Oldest Version | Previous Version | Current Version | All | Text Only | Save Text | Print | Product List | Glossary Off

Skip product version selection by date and time.   

709
ASUS44 KMAF 260202
RWRMAF
MIDLAND AREA WEATHER ROUNDUP
NATIONAL WEATHER SERVICE MIDLAND TX
900 PM CDT SAT OCT 25 2014

...IN SOUTHWEST TEXAS AND SOUTHEAST NEW MEXICO...

CITY           SKY/WX    TMP DP  RH WIND       PRES   REMARKS
ALPINE         CLEAR     65  47  50 W5        30.26R
ANDREWS        FAIR      71  50  47 CALM      30.11S
ARTESIA        NOT AVBL
BIG SPRING     CLEAR     74  47  38 SE9       30.12R
CARLSBAD       CLEAR     63  55  75 S6        30.08R
DRYDEN           N/A     74  57  55 E6        30.10R
FORT STOCKTON  CLEAR     74  54  49 S13       30.11R
GUAD PASS      NOT AVBL
HOBBS          CLEAR     64  48  55 S6        30.13S
MARFA          CLEAR     64  48  55 S7        30.25R
MIDLAND AIRPK  CLEAR     77  47  34 S8        30.10S
MIDLAND INTL   CLEAR     74  48  39 SE9       30.10R
ODESSA         CLEAR     76  49  38 S9        30.11R
PECOS          CLEAR     70  55  58 E6        30.06S
PRESIDIO       FAIR      74  49  41 N8        30.09S
SEMINOLE       CLEAR     66  52  59 CALM      30.12S
SNYDER         CLEAR     71  52  51 SE9       30.09S
WINK           CLEAR     72  52  49 SE6       30.07R
$$
...OTHER STATIONS IN TEXAS...

CITY           SKY/WX    TMP DP  RH WIND       PRES   REMARKS
ABILENE        CLEAR     72  50  45 SE7       30.08S
AMARILLO       CLEAR     68  50  52 S13       30.07S
AUSTIN         CLEAR     66  59  78 CALM      30.09R
BROWNSVILLE    CLEAR     72  66  81 E6        30.11R
CORPUS CHRISTI CLEAR     69  64  84 SE6       30.10R
DALLAS FTW     CLEAR     79  59  50 S9        30.05R
DEL RIO        CLEAR     75  59  57 SE6       30.07R
EL PASO        CLEAR     77  45  32 SW3       30.13R
HOUSTON INT    CLEAR     72  57  59 S6        30.10R
LUBBOCK        CLEAR     68  51  54 S12       30.09S
SAN ANGELO     CLEAR     72  49  44 S7        30.09R
SAN ANTONIO    CLEAR     74  56  53 SE7       30.10R
WACO           CLEAR     76  60  57 SE9       30.07S
WICHITA FALLS  NOT AVBL
$$
...OTHER LOCATIONS IN NEW MEXICO...

CITY           SKY/WX    TMP DP  RH WIND       PRES   REMARKS
ALAMAGORDO     NOT AVBL
ALBUQUERQUE    CLEAR     69  35  28 SE5       30.18R
CANNON AFB     CLEAR     64  40  40 SW7       30.12S
CLOVIS         CLEAR     63  39  42 S8        30.15R
HOLLOMAN AFB   PTCLDY    69  43  38 E8        30.13R
ROSWELL        CLEAR     67  54  63 S8        30.09R
RUIDOSO        CLEAR     57  36  44 SW10      30.31S
SANTA FE       CLEAR     62  27  26 SW7       30.22R
TRUTH OR CONSE CLEAR     71  45  39 W7        30.14S
TUCUMCARI      CLEAR     69  40  34 SW9       30.05S
$$

USA.gov is the U.S. government's official web portal to all federal, state and local government web resources and services.